Location: Rotheul
(50.2849°N, 11.2349°E)
Time: 03:31:34
(UTC+02:00)

ISS - Pass Details

Date: 26 May 2018
Orbit: 402 x 408 km, 51.6° (Epoch: 20 September)

Event Time Altitude Azimuth Distance (km) Brightness Sun altitude
Rises 01:06:07 0° 286° (WNW) 2,321 0.2 -18.6°
Reaches altitude 10° 01:08:12 10° 284° (WNW) 1,460 -0.8 -18.6°
Maximum altitude 01:11:28 75° 199° (SSW) 421 -4.0 -18.6°
Enters shadow 01:11:29 75° 196° (SSW) 421 -4.0 -18.6°
